MST,Max TemperatureF,Mean TemperatureF,Min TemperatureF,Max Dew PointF,MeanDew PointF,Min DewpointF,Max Humidity, Mean Humidity, Min Humidity, Max Sea Level PressureIn, Mean Sea Level PressureIn, Min Sea Level PressureIn, Max VisibilityMiles, Mean VisibilityMiles, Min VisibilityMiles, Max Wind SpeedMPH, Mean Wind SpeedMPH, Max Gust SpeedMPH,PrecipitationIn, CloudCover, Events, WindDirDegrees
2013-12-1,60,51,42,42,39,37,90,70,44,30.14,30.05,29.97,10,10,10,12,5,,0.00,0,,340
2013-12-2,75,56,36,34,25,20,79,36,13,29.95,29.79,29.63,10,10,4,24,11,33,0.00,0,,274
2013-12-3,73,66,60,34,19,12,28,17,10,29.65,29.57,29.49,10,10,4,26,15,34,0.00,0,,253
2013-12-4,75,68,59,40,34,21,40,28,18,29.70,29.60,29.52,10,10,2,25,17,39,0.00,1,,234
2013-12-5,59,43,27,31,24,22,89,82,28,30.12,30.04,29.70,10,5,1,22,9,33,0.15,8,Rain-Snow,11
2013-12-6,28,27,26,27,26,24,96,91,88,30.36,30.24,30.09,8,3,1,12,7,,0.00,8,Rain,113
2013-12-7,28,24,19,24,19,16,96,89,81,30.40,30.24,30.01,10,5,1,17,13,25,0.00,8,,138
2013-12-8,55,38,21,33,24,20,96,81,27,30.03,29.97,29.88,10,4,0,17,10,23,0.00,5,Fog,148
2013-12-9,46,35,23,30,26,21,92,76,54,30.38,30.14,29.96,10,8,5,13,6,,0.00,0,,17
2013-12-10,45,32,19,31,24,18,96,83,46,30.45,30.31,30.19,10,4,0,16,4,,0.00,3,Fog,150
2013-12-11,45,36,27,27,22,19,92,62,36,30.54,30.42,30.19,10,10,7,22,8,30,0.00,0,,310
2013-12-12,37,32,28,33,27,22,86,75,62,30.50,30.36,30.13,10,10,7,10,7,,0.05,5,Rain,148
2013-12-13,61,46,30,40,34,29,96,63,38,30.08,29.91,29.79,10,9,5,36,10,45,0.00,1,,253
2013-12-14,52,43,34,33,26,22,73,55,34,30.35,30.24,29.94,10,10,10,22,12,,0.00,0,,304
2013-12-15,61,42,23,29,24,20,88,59,21,30.31,30.23,30.14,10,10,10,12,3,,0.00,0,,279
2013-12-16,64,45,26,30,26,21,81,55,21,30.22,30.17,30.09,10,10,10,13,4,,0.00,0,,312
2013-12-17,66,50,33,29,25,18,75,51,15,30.29,30.22,30.16,10,10,10,14,7,,0.00,0,,309
2013-12-18,64,46,28,32,28,24,85,58,25,30.17,30.01,29.80,10,10,10,9,5,,0.00,0,,253
2013-12-19,75,57,39,31,24,16,73,37,11,29.77,29.69,29.60,10,10,10,24,5,31,0.00,0,,226
2013-12-20,50,46,41,43,38,26,97,83,44,29.77,29.69,29.60,10,4,0,14,7,18,0.55,7,Fog-Rain,67
2013-12-21,55,48,42,42,35,30,97,67,43,29.76,29.59,29.48,10,8,2,39,13,53,0.02,3,Rain,262
2013-12-22,46,38,30,33,27,24,85,64,44,30.27,30.12,29.78,10,10,10,23,12,30,0.00,4,,316
2013-12-23,55,40,24,32,26,21,92,70,29,30.43,30.36,30.26,10,10,8,8,5,,0.00,0,,251
2013-12-24,63,44,24,32,27,21,89,62,25,30.35,30.19,30.05,10,10,10,12,4,,0.00,0,,199
2013-12-25,51,40,30,31,29,26,85,65,43,30.43,30.35,30.16,10,10,10,25,15,33,0.00,0,,320
2013-12-26,54,38,23,32,26,20,89,69,37,30.43,30.33,30.21,10,10,10,13,5,20,0.00,0,,177
2013-12-27,52,38,25,28,25,22,88,68,35,30.41,30.32,30.23,10,10,10,9,6,,0.00,0,,259
2013-12-28,60,40,19,34,27,17,100,69,25,30.20,30.02,29.78,10,8,0,18,6,25,0.00,2,Fog,187
2013-12-29,53,37,21,25,20,16,85,53,30,30.31,30.13,29.78,10,10,10,28,14,36,0.00,0,,332
2013-12-30,59,39,19,25,20,15,88,59,20,30.38,30.25,30.16,10,10,10,15,5,20,0.00,0,,340
2013-12-31,59,41,23,25,22,19,85,57,25,30.35,30.20,30.01,10,10,10,12,6,,0.00,0,,249